Weather History for Joplin, MO

Change the Weather History Date:

Saturday, July 6, 2013

  Actual Average Record
Temperature  
Mean Temperature 77 °F 80 °F  
Max Temperature 86 °F 90 °F 102 °F (1954)
Min Temperature 67 °F 70 °F 53 °F (1972)
Degree Days  
Heating Degree Days 0 0  
Month to date heating degree days 0 0  
Since 1 June heating degree days 12 5  
Since 1 July heating degree days 0 0  
Cooling Degree Days 12 15  
Month to date cooling degree days 46 86  
Year to date cooling degree days 513 584  
Since 1 June cooling degree days 369 404  
Growing Degree Days 26 (Base 50)    
Moisture  
Dew Point 62 °F    
Average Humidity 61    
Maximum Humidity 74    
Minimum Humidity 47    
Precipitation  
Precipitation 0.03 in 0.14 in 1.55 in (2010)
Month to date precipitation 0.09 0.85  
Year to date precipitation 27.87 24.66  
Snow  
Snow 0.00 in - - ()
Month to date snowfall 0.0  
Since 1 June snowfall 0.0  
Since 1 July snowfall 0.0  
Snow Depth 0.00 in    
Sea Level Pressure  
Sea Level Pressure 29.96 in    
Wind  
Wind Speed 6 mph (SSE)    
Max Wind Speed 13 mph    
Max Gust Speed 18 mph    
Visibility 10 miles    
Events Rain    
T = Trace of Precipitation, MM = Missing Value Source: NWS Daily Summary

Daily Weather History Graph

Daily Weather History Graph

Search for Another Location

Airport:

Trip Planner

Search our weather history database for the weather conditions in past years. The results will help you decide how hot, cold, wet, or windy it might be!

Date:

Astronomy

Jul. 06, 2013 Rise Set
Actual Time 6:04 AM CDT 8:41 PM CDT
Civil Twilight 5:33 AM CDT 9:11 PM CDT
Nautical Twilight 4:55 AM CDT 9:49 PM CDT
Astronomical Twilight 4:13 AM CDT 10:32 PM CDT
Moon 4:49 AM CDT (7/6) 7:24 PM CDT (7/6)
Length of Visible Light 15h 37m
Length of Day
14h 36m
Waning Crescent, 2% of the Moon is Illuminated
Jul 6
Waning Crescent
Jul 8
New
Jul 15
First Quarter
Jul 22
Full
Jul 29
Last Quarter

Hourly Weather History & Observations

Time (CDT) Temp. Heat Index Dew Point Humidity Pressure Visibility Wind Dir Wind Speed Gust Speed Precip Events Conditions
12:53 AM 72.0 °F - 57.0 °F 59% 29.95 in 10.0 mi SE 6.9 mph - N/A   Clear
1:53 AM 71.1 °F - 57.0 °F 61% 29.94 in 10.0 mi SSE 9.2 mph - N/A   Clear
2:53 AM 72.0 °F - 57.0 °F 59% 29.94 in 10.0 mi SE 9.2 mph - N/A   Clear
3:53 AM 69.1 °F - 57.0 °F 65% 29.94 in 10.0 mi SSE 8.1 mph - N/A   Clear
4:53 AM 69.1 °F - 57.0 °F 65% 29.94 in 10.0 mi SSE 6.9 mph - N/A   Clear
5:53 AM 69.1 °F - 60.1 °F 73% 29.95 in 10.0 mi SE 5.8 mph - 0.03 in   Scattered Clouds
6:53 AM 69.1 °F - 60.1 °F 73% 29.96 in 10.0 mi South 9.2 mph - N/A   Scattered Clouds
8:53 AM 73.0 °F - 63.0 °F 71% 30.02 in 10.0 mi SE 3.5 mph - N/A   Mostly Cloudy
9:53 AM 73.9 °F - 63.0 °F 68% 30.01 in 10.0 mi South 6.9 mph - 0.00 in Rain Light Rain
10:53 AM 73.0 °F - 63.0 °F 71% 30.01 in 10.0 mi South 6.9 mph - 0.00 in   Scattered Clouds
11:53 AM 73.0 °F - 64.9 °F 76% 29.99 in 10.0 mi South 3.5 mph - N/A   Overcast
12:53 PM 81.0 °F 81.7 °F 61.0 °F 50% 29.97 in 10.0 mi South 6.9 mph - N/A   Clear
1:53 PM 82.9 °F 83.3 °F 61.0 °F 47% 29.96 in 10.0 mi South 4.6 mph - N/A   Mostly Cloudy
2:53 PM 84.0 °F 85.4 °F 64.0 °F 51% 29.95 in 10.0 mi South 6.9 mph - N/A   Clear
3:53 PM 82.9 °F 84.6 °F 64.9 °F 54% 29.94 in 10.0 mi ESE 8.1 mph - N/A   Clear
4:53 PM 84.0 °F 86.5 °F 66.9 °F 56% 29.93 in 10.0 mi SSE 6.9 mph - N/A   Partly Cloudy
5:53 PM 84.0 °F 85.8 °F 64.9 °F 53% 29.92 in 10.0 mi South 5.8 mph - N/A   Partly Cloudy
6:53 PM 81.0 °F 82.2 °F 63.0 °F 54% 29.91 in 10.0 mi South 5.8 mph - N/A   Partly Cloudy
7:53 PM 79.0 °F - 66.0 °F 64% 29.92 in 10.0 mi South 5.8 mph - N/A   Clear
8:53 PM 78.1 °F - 66.0 °F 66% 29.94 in 10.0 mi SSW 4.6 mph - N/A   Clear
9:53 PM 75.9 °F - 66.0 °F 71% 29.95 in 10.0 mi South 5.8 mph - N/A   Clear
10:53 PM 75.9 °F - 63.0 °F 64% 29.97 in 10.0 mi South 5.8 mph - N/A   Clear
11:53 PM 73.9 °F - 63.0 °F 68% 29.97 in 10.0 mi South 5.8 mph - N/A   Clear